Location: Seattle
(47.6064°N, 122.3308°W)
Time: 07:59:29
(UTC-07:00)

ISS - Pass Details

Date: 05 April 2016
Orbit: 411 x 421 km, 51.6° (Epoch: 17 October)

Event Time Altitude Azimuth Distance (km) Brightness Sun altitude
Rises 20:31:29 0° 292° (WNW) 2,347 2.6 -8.3°
Reaches altitude 10° 20:33:36 10° 296° (WNW) 1,483 0.7 -8.6°
Maximum altitude 20:36:54 60° 18° (NNE) 477 -3.5 -9.1°
Enters shadow 20:39:42 14° 97° (E) 1,285 -1.9 -9.6°
Drops below altitude 10° 20:40:11 10° 99° (E) 1,482 - -9.6°
Sets 20:42:18 0° 103° (ESE) 2,345 - -10.0°
